Погода в Актюбинском

Россия / Оренбургская область     51°12′08″N   61°27′03″E
темп.,
°C
ветер,
м/с
пор.,
м/с
влажн.,
%
обл.,
%
осадки,
мм/ч
давл.,
гПа
погр.,
м
26 июля, пн
пн2623:00+20ссв595676 0.0 1015395
02:00+16ссв59750 0.0 1017243
05:00+14ссв49780 0.0 1018210
08:00+18св56540 0.0 1018479
11:00+21св33380 0.0 10191447
14:00+24с34318 0.0 10182612
17:00+22с97406 0.0 1017813
20:00+20ссв464383 0.0 1017294
27 июля, вт
вт2723:00+17ссв46486 0.0 1018128
02:00+15всв35510 0.0 101891
05:00+14в33574 0.0 101838
08:00+18вюв22448 0.0 1018254
11:00+22с233263 0.0 10172165
14:00+23с463122 0.0 10162545
17:00+24ссз55316 0.0 10152207
20:00+21ссв33365 0.0 101448
28 июля, ср
ср2823:00+17в224115 0.0 101412
02:00+16ю22454 0.0 101314
05:00+16зюз33433 0.0 101222
08:00+20зюз463852 0.0 1012347
11:00+24з572946 0.0 10112660
14:00+25зсз672744 0.0 10102698
17:00+25сз573128 0.0 10102452
20:00+21ссв68524 0.0 1011612
29 июля, чт
чт2923:00+16ссв49650 0.0 1013240
02:00+14всв33730 0.0 101447
05:00+12всв22760 0.0 101414
08:00+17св12550 0.0 1015292
11:00+21ссз23340 0.0 10151874
14:00+24сз33280 0.0 10142370
17:00+25зсз34255 0.0 10132670
20:00+22сз34320 0.0 101355
30 июля, пт
пт3023:00+19юз22340 0.0 101411
02:00+19юз4433100 0.0 101340
05:00+17юз4637100 0.0 101477
08:00+20юз483695 0.0 1014275
11:00+25з6726100 0.0 10141516
14:00+25ююз7102372 0.0 10131568
17:00+24ююз7112977 0.0 1011935
20:00+25ююз71228100 0.0 1009327